Temperature
4 4 3 3 3 3 3 3 3 3 3 3 3 3 3 3 4 4 4 4 4 4 5 5 5 6 6 6 7 7 7 7 7 7 7 7 7 8 8 8 8 8 8
3 3 3 3 3 3 3 3 2 2 2 2 2 2 2 2 3 3 3 3 4 4 4 4 5 5 5 6 6 6 6 6 7 7 6 6 7 7 7 7 7 7 7
2 2 2 2 2 2 2 2 2 2 2 2 1 2 2 2 2 2 3 3 3 3 4 4 4 5 5 5 5 6 5 6 6 6 6 6 6 6 6 7 7 7 7
1 2 2 2 1 1 1 2 2 2 1 1 1 1 1 1 2 2 2 2 3 3 3 3 4 4 4 4 5 5 5 5 5 5 6 6 5 5 5 6 6 6 6
1 1 1 1 1 1 1 1 1 1 1 1 0 0 1 1 1 1 2 2 2 2 3 3 3 3 4 4 4 4 4 4 5 5 5 5 5 5 5 5 5 6 6
0 1 1 1 1 0 0 0 0 1 0 0 0 -0 0 0 0 1 1 1 2 2 2 2 2 3 3 3 3 4 4 4 4 4 5 5 5 5 5 5 5 5 5
-0 0 0 0 0 0 -0 -0 -0 0 0 -0 -0 -0 -0 -0 -0 0 1 1 1 1 2 2 2 2 2 2 3 3 3 3 4 4 4 4 4 4 4 4 4 4 4
-1 -0 -0 -0 -0 -1 -0 -0 -0 -0 -0 -0 -0 -1 -1 -1 -1 -0 0 0 1 1 1 1 1 2 2 2 2 2 3 3 3 3 4 4 4 4 4 4 4 3 4
-1 -1 -1 -1 -1 -1 -1 -1 -1 -1 -1 -1 -1 -1 -1 -1 -1 -1 -0 -0 -0 0 0 1 1 1 1 1 1 2 2 2 2 3 3 3 3 3 3 4 3 3 2
-1 -1 -1 -1 -1 -1 -1 -1 -1 -1 -1 -1 -1 -1 -1 -2 -1 -1 -1 -1 -1 -0 -0 0 0 1 1 1 1 1 2 2 2 2 2 3 3 3 3 3 3 3 2
-2 -2 -2 -2 -2 -1 -1 -1 -2 -2 -2 -2 -2 -2 -2 -2 -2 -2 -1 -1 -1 -1 -1 -1 -0 0 0 1 1 1 1 1 2 2 2 2 2 2 2 2 2 2 2
-3 -3 -2 -2 -2 -2 -2 -2 -2 -2 -2 -2 -2 -2 -2 -2 -2 -2 -1 -1 -1 -1 -1 -1 -1 -1 -0 -0 0 0 1 1 1 1 1 1 1 1 2 2 2 2 2
-3 -3 -3 -3 -3 -3 -3 -3 -3 -3 -3 -3 -3 -2 -2 -2 -2 -2 -2 -2 -2 -2 -1 -1 -1 -1 -1 -1 -0 -0 0 0 0 0 1 1 1 1 1 1 1 1 1
-4 -4 -4 -4 -4 -4 -3 -3 -3 -3 -3 -3 -3 -3 -3 -2 -2 -2 -2 -2 -2 -2 -2 -2 -2 -1 -1 -1 -1 -1 -0 -0 -0 -0 -0 -0 0 0 0 0 0 0 0
-5 -5 -5 -5 -4 -4 -4 -4 -4 -4 -3 -3 -3 -3 -3 -3 -3 -2 -2 -2 -2 -2 -2 -2 -2 -2 -2 -1 -1 -1 -1 -1 -1 -1 -1 -0 -0 -0 -0 -0 -0 -0 -0
-5 -6 -5 -5 -5 -5 -4 -4 -4 -4 -4 -3 -3 -3 -3 -3 -3 -3 -2 -2 -2 -2 -2 -2 -2 -2 -2 -2 -2 -2 -2 -2 -1 -1 -1 -1 -1 -1 -1 -1 -1 -1 -1
-6 -6 -6 -6 -6 -5 -5 -5 -5 -4 -4 -4 -4 -4 -3 -3 -3 -3 -3 -3 -2 -2 -2 -2 -2 -2 -2 -2 -2 -2 -2 -2 -2 -2 -2 -1 -1 -1 -1 -1 -1 -1 -1
-6 -6 -6 -6 -6 -6 -5 -5 -5 -5 -5 -4 -4 -4 -4 -4 -4 -4 -3 -3 -3 -3 -3 -3 -3 -3 -2 -2 -2 -3 -3 -3 -2 -2 -2 -2 -2 -2 -2 -2 -2 -2 -2
-7 -7 -7 -7 -7 -6 -6 -6 -6 -5 -5 -5 -5 -5 -5 -4 -4 -4 -4 -4 -4 -3 -3 -3 -3 -3 -3 -3 -3 -3 -3 -3 -3 -3 -3 -3 -3 -3 -3 -3 -3 -3 -2
-8 -8 -8 -7 -7 -7 -7 -6 -6 -6 -6 -6 -5 -5 -5 -5 -5 -5 -5 -4 -4 -4 -4 -4 -4 -4 -4 -4 -4 -3 -3 -3 -3 -3 -3 -3 -3 -3 -3 -3 -3 -3 -3
-8 -8 -8 -8 -8 -8 -7 -7 -7 -7 -6 -6 -6 -6 -5 -5 -5 -5 -5 -5 -5 -5 -5 -5 -5 -4 -4 -4 -4 -4 -4 -4 -4 -4 -4 -4 -4 -4 -4 -4 -4 -3 -3
-8 -9 -9 -8 -8 -8 -8 -7 -7 -7 -7 -7 -6 -6 -6 -6 -6 -6 -6 -6 -6 -6 -5 -5 -5 -5 -5 -5 -5 -5 -4 -4 -4 -4 -4 -4 -4 -4 -4 -4 -4 -4 -4
-9 -9 -9 -9 -8 -8 -8 -8 -8 -8 -7 -7 -7 -7 -7 -7 -7 -7 -7 -6 -6 -6 -6 -6 -6 -6 -6 -6 -5 -5 -5 -5 -5 -5 -5 -5 -5 -5 -5 -5 -5 -5 -4
-10 -10 -9 -9 -9 -9 -9 -9 -9 -8 -8 -8 -7 -7 -7 -7 -7 -7 -7 -7 -7 -7 -7 -7 -7 -7 -7 -6 -6 -6 -6 -6 -6 -5 -5 -5 -5 -5 -5 -5 -5 -5 -5
-10 -10 -10 -10 -10 -9 -9 -9 -9 -9 -9 -8 -8 -8 -8 -8 -8 -8 -8 -8 -8 -8 -8 -8 -8 -8 -7 -7 -7 -6 -6 -6 -6 -6 -6 -6 -6 -6 -6 -6 -6 -6 -6
-10 -10 -10 -10 -10 -10 -10 -10 -10 -9 -9 -9 -9 -9 -9 -9 -9 -9 -8 -9 -9 -8 -8 -8 -8 -8 -8 -8 -7 -7 -7 -7 -7 -6 -6 -6 -6 -6 -6 -6 -6 -6 -6
Wind_Speed
2 1 1 1 1 1 2 2 1 1 1 0 1 1 2 2 2 1 1 1 1 1 1 1 1 1 1 2 2 2 2 2 3 3 2 1 2 2 2 2 3 3 3
1 1 1 1 1 1 2 1 1 2 2 2 1 1 2 2 2 2 1 1 1 1 1 1 1 1 1 2 2 3 2 1 2 3 4 1 0 0 1 1 2 2 3
3 2 1 1 1 1 2 2 2 2 2 2 1 1 1 1 2 2 2 2 2 2 2 2 2 2 2 3 3 3 3 3 2 2 3 3 3 1 0 1 2 2 2
3 2 2 2 2 2 2 2 3 2 2 2 2 2 3 3 4 3 3 3 3 3 3 2 2 2 2 3 4 4 3 4 4 1 0 1 3 3 1 1 1 1 2
3 3 3 3 2 2 2 2 3 3 2 3 3 4 4 4 3 3 3 3 3 3 3 3 3 3 2 3 4 4 4 3 4 3 2 1 1 1 3 2 2 2 2
2 2 2 2 2 2 2 2 3 3 3 3 4 5 5 4 4 4 4 3 3 3 3 3 4 3 3 4 5 5 5 4 4 3 3 3 3 3 3 3 3 3 2
2 2 2 3 3 3 3 3 4 4 4 4 5 5 6 6 7 6 5 4 3 3 4 4 4 4 4 5 5 5 4 5 4 4 4 4 3 2 2 3 3 2 1
2 3 3 3 4 4 4 4 5 5 5 5 5 5 5 5 5 6 5 5 4 4 4 5 4 4 5 5 5 4 5 4 5 5 5 4 3 3 3 3 3 2 1
3 3 4 4 4 4 5 5 5 5 5 5 5 5 5 5 5 5 5 4 4 4 4 5 5 5 5 6 5 5 5 5 5 5 5 4 3 3 3 3 4 4 4
5 5 4 5 5 4 5 5 5 5 6 5 5 4 5 5 5 5 5 5 5 5 4 5 5 5 6 6 6 5 5 6 6 5 6 5 4 3 3 4 3 3 4
5 5 5 5 5 5 5 5 5 5 5 5 4 4 5 5 5 6 6 5 5 5 5 5 5 6 7 7 6 7 6 7 6 6 7 6 5 5 4 4 4 3 3
5 5 5 6 6 6 6 5 5 5 5 4 4 4 4 4 6 6 6 6 6 6 6 6 6 7 7 7 8 8 8 8 8 8 8 7 6 6 5 5 4 4 4
6 6 6 6 7 7 6 6 5 5 5 4 4 4 4 5 5 6 5 5 6 6 6 6 7 7 8 8 8 9 8 9 9 9 9 9 8 8 6 6 5 4 4
6 6 7 6 7 7 7 6 6 5 5 4 4 4 5 5 5 5 5 5 6 6 7 7 7 8 8 8 9 9 9 9 8 9 9 9 9 9 8 7 7 5 5
8 8 8 7 8 8 8 7 6 6 5 4 4 5 5 4 4 4 4 5 6 6 6 7 7 7 7 8 10 10 10 9 8 8 9 9 10 11 9 7 7 6 6
9 10 9 9 9 8 8 8 7 7 5 4 4 5 4 4 4 4 4 4 5 5 5 6 7 7 7 10 12 11 9 9 9 9 9 9 10 11 11 11 10 9 8
9 10 10 9 9 9 8 7 7 7 5 5 4 4 4 4 4 4 4 4 4 4 5 5 5 6 7 10 11 12 8 8 9 9 8 8 8 10 8 9 10 9 10
8 9 9 10 9 8 8 7 7 6 6 5 5 5 4 5 5 4 4 4 3 3 3 4 4 4 6 8 9 10 7 7 8 9 9 9 8 9 9 8 7 7 7
7 7 8 8 8 8 8 7 7 6 6 6 6 5 5 5 5 5 4 4 3 3 3 3 3 3 5 7 7 8 5 6 7 7 7 8 8 10 11 9 8 7 6
7 7 8 8 8 8 7 7 7 7 7 7 7 6 5 4 4 5 4 4 3 3 3 3 3 3 3 5 6 5 4 5 5 5 6 8 9 10 11 9 9 8 7
7 7 7 7 8 8 7 7 7 8 8 7 7 6 6 5 4 4 4 4 4 3 3 3 3 3 3 3 4 4 3 4 4 4 4 5 8 9 10 9 8 9 7
7 7 7 8 8 7 7 7 8 9 8 7 7 7 7 5 5 4 4 4 3 3 3 3 4 3 3 3 3 3 3 4 3 3 3 4 7 8 8 8 8 9 7
7 6 6 8 8 7 7 7 9 9 8 8 8 7 7 6 6 5 4 4 3 3 3 3 3 4 4 3 4 3 3 3 2 2 3 4 6 6 5 6 7 5 5
6 6 6 7 8 8 8 7 8 8 7 7 7 7 7 7 6 5 4 4 3 3 3 3 3 3 3 3 2 2 2 2 1 1 1 2 2 3 3 3 3 3 3
6 5 6 7 8 8 8 8 8 7 7 7 7 7 6 6 6 6 5 5 4 4 4 3 2 3 3 4 4 2 1 1 1 1 1 1 1 1 1 1 1 1 2
6 6 6 7 8 8 8 8 8 7 6 6 6 5 5 5 5 5 6 8 7 8 9 8 6 4 6 7 6 4 3 2 0 0 1 1 1 1 1 2 2 2 2
Wind_Direction
235 204 182 168 152 162 170 186 179 210 194 278 290 303 294 304 301 299 264 198 165 174 131 144 124 130 171 180 155 146 135 149 143 124 112 65 76 106 112 104 113 110 118
255 225 181 148 179 203 208 211 214 225 229 246 257 253 260 268 277 276 275 227 198 200 195 165 170 167 176 177 161 142 158 166 140 141 146 136 113 58 136 133 138 130 113
239 242 234 233 239 252 229 243 248 252 251 258 274 309 304 294 289 282 277 259 222 204 202 193 177 184 185 194 184 167 166 178 176 151 151 159 191 186 217 167 152 143 145
252 244 245 247 248 264 265 257 253 256 255 241 229 234 242 250 256 258 258 262 230 208 201 199 191 194 188 197 193 180 182 174 179 188 169 156 150 160 179 224 198 176 176
239 244 258 256 275 287 282 278 269 268 254 237 234 238 245 247 254 257 243 247 235 217 205 203 197 204 197 200 189 186 189 191 186 181 175 135 119 133 164 201 208 216 217
271 279 291 297 300 304 299 295 274 275 266 247 239 236 236 238 244 250 237 242 238 223 213 211 205 210 207 205 197 190 192 197 197 188 180 173 171 176 170 189 196 211 228
285 298 311 310 305 299 295 291 281 270 262 252 242 238 236 231 231 237 229 231 235 233 220 216 213 217 216 206 194 192 200 198 199 202 197 195 196 188 180 180 199 226 249
309 305 302 301 300 293 292 287 279 274 259 252 248 239 237 234 237 235 229 229 233 233 216 211 218 225 215 206 198 199 206 200 206 216 207 201 203 200 188 182 180 207 245
316 315 319 317 305 295 294 288 280 279 268 259 250 241 233 234 237 238 228 232 234 231 214 211 217 226 216 204 202 209 210 204 211 217 210 208 207 204 206 191 188 190 210
333 329 323 319 311 300 300 302 287 279 278 269 255 253 240 240 239 238 229 229 231 231 222 221 221 222 215 206 205 213 212 207 215 213 205 209 207 205 207 198 203 208 207
326 322 323 320 318 316 309 306 301 293 285 274 265 261 251 245 242 240 233 231 233 233 230 227 227 225 221 211 213 217 212 210 214 211 204 210 204 206 208 201 200 211 210
325 325 327 329 329 325 319 308 305 301 289 280 271 265 263 252 247 242 238 232 233 233 234 231 232 230 221 215 215 218 213 211 212 209 204 209 205 210 210 204 208 212 213
336 338 338 332 326 322 318 314 311 307 305 295 283 276 272 263 252 247 243 237 235 237 236 233 234 232 226 220 221 221 219 216 214 209 206 207 201 212 212 209 211 215 219
332 335 331 325 324 323 321 319 314 311 310 301 289 279 277 272 269 260 246 241 239 238 237 237 237 235 230 225 224 222 220 219 217 213 209 207 205 210 211 212 213 212 214
340 334 328 324 323 326 326 324 319 315 313 301 291 285 285 286 285 273 256 246 240 242 240 239 242 239 232 226 223 222 220 217 218 217 213 211 211 214 214 215 209 204 206
334 332 332 330 327 326 326 326 325 324 319 308 303 307 310 305 296 285 271 255 248 248 243 243 244 242 242 238 233 227 220 216 216 219 216 216 216 220 223 226 222 212 205
327 330 330 328 326 324 323 322 321 325 326 320 318 320 316 312 309 304 295 278 266 257 253 248 242 245 249 245 238 233 223 216 215 217 217 220 218 217 212 223 228 229 229
326 326 327 327 325 326 331 329 328 332 332 332 330 325 322 316 315 309 299 294 285 276 269 263 253 254 263 259 249 239 226 219 220 217 213 213 214 212 204 203 212 221 228
319 320 322 321 325 330 333 334 335 338 339 335 331 328 325 321 320 315 311 306 301 295 283 273 266 263 280 279 262 241 214 215 219 221 217 214 212 216 210 206 210 218 229
331 331 333 334 336 334 337 343 342 345 340 332 329 330 329 323 319 314 314 315 315 308 300 300 293 277 279 284 277 245 214 217 218 219 219 222 218 216 213 207 204 213 219
333 338 340 340 336 336 345 349 348 343 333 333 335 336 336 330 323 325 327 330 333 337 337 331 328 316 297 290 282 254 221 216 214 216 216 215 219 221 219 215 210 216 211
341 345 345 342 340 345 355 354 347 337 339 343 345 345 344 342 344 348 346 348 350 349 350 354 349 345 335 326 299 266 245 227 206 214 219 216 220 223 224 222 220 224 219
336 340 341 341 344 351 359 352 339 340 347 352 352 351 351 355 357 356 351 353 359 356 350 352 347 344 348 342 328 308 282 248 222 213 206 221 221 219 223 223 226 226 212
335 338 345 346 343 345 350 344 339 344 351 352 350 352 357 359 2 1 359 1 357 353 349 347 341 339 341 338 332 320 291 276 265 255 218 221 223 214 212 227 239 232 211
332 338 341 338 335 340 345 345 345 348 353 353 352 355 359 359 1 3 4 0 359 352 349 343 329 334 334 332 332 332 297 247 215 162 90 113 151 174 190 195 200 209 194
332 337 338 337 335 339 342 343 344 347 351 355 356 355 355 358 1 2 1 4 4 3 6 7 1 347 350 349 350 352 3 8 50 120 130 145 159 186 204 210 213 207 195
Height
1484 1485 1485 1486 1486 1487 1488 1488 1489 1489 1489 1489 1488 1489 1489 1490 1491 1492 1493 1494 1496 1498 1499 1500 1502 1503 1505 1506 1508 1510 1512 1514 1516 1518 1520 1523 1525 1527 1529 1531 1533 1535 1537
1480 1481 1481 1482 1482 1483 1484 1484 1485 1485 1485 1485 1485 1486 1486 1486 1487 1488 1489 1491 1492 1494 1495 1497 1498 1500 1501 1503 1505 1506 1508 1510 1512 1514 1516 1519 1523 1524 1526 1528 1530 1532 1534
1476 1477 1477 1478 1479 1479 1480 1481 1481 1481 1481 1482 1482 1482 1483 1483 1483 1484 1485 1487 1488 1490 1492 1493 1495 1496 1498 1500 1501 1503 1504 1506 1509 1511 1513 1515 1517 1520 1522 1524 1526 1529 1531
1474 1474 1474 1475 1475 1476 1477 1477 1478 1478 1478 1478 1478 1478 1478 1478 1479 1480 1481 1483 1484 1486 1488 1489 1491 1492 1494 1496 1498 1499 1502 1503 1505 1507 1509 1512 1513 1516 1518 1521 1523 1525 1527
1471 1471 1472 1472 1473 1473 1474 1474 1474 1474 1474 1474 1474 1474 1474 1475 1475 1476 1478 1479 1480 1482 1484 1485 1487 1489 1490 1492 1494 1496 1498 1500 1501 1503 1505 1507 1510 1512 1514 1516 1519 1521 1524
1469 1470 1470 1470 1470 1471 1470 1470 1470 1470 1470 1470 1470 1470 1470 1471 1471 1472 1473 1474 1476 1477 1479 1481 1483 1485 1486 1488 1490 1492 1494 1496 1498 1500 1501 1503 1506 1508 1510 1512 1514 1516 1519
1467 1467 1467 1467 1467 1467 1466 1466 1466 1466 1466 1466 1465 1465 1466 1466 1467 1467 1468 1470 1471 1473 1475 1477 1478 1480 1482 1484 1486 1488 1490 1492 1494 1496 1498 1500 1503 1505 1507 1509 1511 1513 1514
1466 1465 1465 1465 1464 1464 1463 1462 1462 1461 1461 1461 1461 1461 1461 1461 1462 1463 1464 1465 1467 1469 1470 1472 1474 1476 1477 1479 1481 1483 1486 1488 1490 1492 1494 1496 1499 1501 1503 1505 1507 1509 1510
1464 1464 1463 1463 1462 1461 1460 1459 1458 1457 1457 1457 1456 1456 1456 1457 1457 1458 1459 1461 1462 1464 1466 1467 1469 1470 1472 1474 1477 1478 1481 1483 1486 1488 1490 1492 1494 1497 1499 1501 1503 1505 1506
1463 1462 1461 1460 1459 1458 1457 1456 1455 1454 1453 1452 1452 1452 1452 1452 1453 1454 1455 1456 1457 1459 1460 1462 1463 1465 1467 1469 1471 1473 1476 1479 1481 1483 1485 1487 1490 1492 1494 1496 1498 1500 1502
1462 1461 1459 1458 1457 1455 1454 1452 1451 1449 1448 1448 1447 1447 1447 1448 1448 1449 1450 1451 1452 1454 1455 1457 1458 1460 1462 1464 1466 1468 1470 1473 1475 1477 1480 1482 1485 1487 1489 1491 1493 1495 1497
1461 1460 1458 1456 1454 1452 1450 1448 1447 1445 1445 1444 1443 1443 1443 1444 1444 1444 1445 1446 1447 1449 1450 1452 1453 1455 1456 1458 1460 1462 1464 1467 1469 1471 1474 1477 1479 1482 1484 1486 1488 1490 1492
1460 1458 1456 1453 1451 1449 1446 1445 1443 1441 1441 1440 1439 1439 1439 1439 1439 1439 1440 1441 1442 1444 1445 1446 1448 1449 1451 1453 1454 1457 1458 1461 1463 1466 1468 1471 1473 1476 1478 1480 1483 1485 1487
1458 1456 1454 1451 1449 1446 1444 1441 1440 1439 1437 1436 1435 1435 1435 1435 1435 1435 1436 1437 1438 1439 1440 1441 1443 1444 1445 1447 1449 1451 1453 1455 1458 1460 1462 1465 1468 1470 1473 1475 1477 1479 1482
1457 1455 1452 1449 1446 1444 1441 1439 1437 1436 1434 1433 1432 1431 1431 1430 1430 1431 1431 1432 1433 1434 1435 1436 1437 1439 1440 1442 1443 1445 1447 1449 1451 1454 1456 1459 1462 1464 1467 1469 1471 1473 1475
1456 1453 1450 1447 1445 1442 1439 1437 1434 1433 1431 1430 1429 1428 1427 1427 1427 1427 1427 1428 1429 1429 1430 1431 1432 1433 1434 1435 1437 1439 1440 1442 1445 1447 1450 1453 1455 1458 1461 1463 1465 1467 1469
1455 1452 1449 1446 1443 1441 1438 1435 1433 1431 1429 1428 1427 1426 1425 1424 1424 1424 1424 1424 1424 1425 1426 1426 1427 1427 1428 1430 1431 1433 1435 1436 1438 1441 1444 1446 1449 1452 1454 1457 1459 1461 1463
1454 1451 1448 1445 1443 1440 1437 1435 1432 1429 1427 1425 1424 1423 1422 1421 1421 1421 1420 1420 1420 1420 1420 1421 1421 1422 1423 1424 1425 1426 1428 1430 1433 1435 1437 1440 1442 1445 1448 1450 1452 1454 1457
1454 1450 1447 1445 1441 1439 1436 1433 1430 1428 1426 1424 1423 1422 1420 1419 1419 1418 1417 1417 1416 1416 1416 1416 1416 1416 1417 1418 1419 1420 1422 1424 1427 1430 1432 1434 1436 1439 1441 1444 1446 1448 1451
1452 1449 1446 1443 1440 1438 1435 1432 1429 1427 1425 1423 1421 1420 1419 1418 1416 1415 1415 1414 1413 1412 1412 1412 1412 1412 1412 1413 1414 1415 1417 1419 1422 1424 1426 1428 1431 1433 1436 1438 1440 1442 1445
1450 1447 1445 1442 1440 1437 1434 1431 1428 1426 1424 1422 1421 1419 1417 1416 1415 1414 1413 1412 1411 1409 1408 1408 1408 1408 1409 1409 1410 1411 1413 1415 1417 1419 1421 1423 1426 1428 1430 1433 1435 1437 1440
1448 1446 1443 1441 1439 1437 1433 1430 1427 1426 1424 1422 1420 1418 1416 1415 1413 1412 1411 1410 1408 1407 1406 1406 1406 1406 1406 1406 1407 1409 1410 1412 1413 1414 1416 1419 1421 1423 1425 1428 1430 1432 1435
1448 1445 1443 1440 1438 1436 1433 1430 1428 1426 1423 1421 1419 1417 1415 1414 1412 1411 1409 1408 1407 1406 1405 1404 1404 1404 1404 1405 1405 1406 1407 1408 1409 1410 1412 1414 1417 1418 1420 1423 1425 1427 1429
1447 1445 1442 1439 1437 1435 1433 1431 1428 1425 1423 1420 1418 1416 1414 1413 1412 1410 1409 1408 1406 1405 1404 1404 1403 1403 1403 1403 1403 1403 1404 1405 1405 1406 1408 1410 1412 1414 1416 1418 1420 1422 1423
1446 1444 1442 1439 1437 1435 1433 1430 1428 1425 1423 1420 1418 1416 1414 1413 1411 1410 1409 1407 1407 1406 1405 1404 1403 1402 1401 1402 1403 1402 1402 1402 1403 1404 1404 1406 1408 1410 1411 1413 1415 1417 1419
1445 1443 1441 1439 1437 1435 1432 1430 1428 1425 1423 1420 1418 1416 1415 1413 1411 1410 1409 1408 1407 1406 1405 1404 1403 1402 1401 1401 1401 1400 1400 1400 1401 1401 1401 1403 1404 1406 1407 1409 1411 1413 1414